[[{"header":{"parameterUnit":"m.s-1","parameterCategory":1,"la1":30.2991,"la2":30.254,"lo1":-89.0895,"lo2":-89.0444,"dy":0.0017,"dx":0.0017,"nx":28,"ny":28,"refTime":"2023-07-30T09:00:00:Z","depth":0,"parameterNumber":2,"parameterNumberName":"U-component_of_WINDS"},"data":[0,0,0,0,0,0,0,0,0,0,0,0,0,0,0,0,0,0,0,0,0,0,0,0,0,0,0,0,0,0,0,0,0,0,0,0,0,0,0,0,0,0,0,0,0,0,0,0,0,0,0,0,0,0,0,0,0,0,-0.4938,-0.4937,0,-0.4879,-0.4878,-0.4877,-0.4831,-0.483,-0.483,-0.483,-0.4768,-0.4767,-0.4765,0,0,0,0,0,0,0,0,0,0,0,0,0,-0.5011,-0.501,-0.4938,-0.4937,-0.4937,-0.4879,-0.4878,-0.4877,-0.4831,-0.483,-0.483,-0.4829,-0.4768,-0.4767,-0.4765,0,0,0,0,0,0,0,0,0,0,0,0,0,-0.4968,-0.501,-0.4938,-0.4907,-0.4903,-0.4879,-0.4878,-0.4877,-0.4831,-0.483,-0.483,-0.4829,-0.4769,-0.4767,-0.4765,-0.4767,0,0,-0.4759,-0.4759,0,0,0,0,0,0,0,0,-0.4971,-0.4966,-0.4912,-0.4909,-0.4905,-0.4861,-0.4881,-0.484,-0.4831,-0.4858,-0.483,-0.4829,-0.4799,-0.4795,-0.4785,-0.4764,-0.4761,-0.4759,-0.4758,-0.4757,-0.4757,0,0,0,0,0,0,0,-0.4974,-0.4968,-0.4914,-0.4911,-0.4907,-0.4895,-0.4888,-0.4873,-0.4833,-0.4856,-0.4853,-0.4846,-0.4797,-0.4787,-0.4784,-0.476,-0.4759,-0.4758,-0.4757,-0.4756,-0.4738,-0.4739,0,0,0,0,0,0,-0.4982,-0.4971,-0.4916,-0.4913,-0.4937,-0.4894,-0.4887,-0.4876,-0.4833,-0.4826,-0.4847,-0.4844,-0.4791,-0.4786,-0.4781,-0.4781,-0.4757,-0.4756,-0.4755,-0.4738,-0.4738,-0.4739,0,0,0,0,0,0,-0.4983,-0.4977,-0.4919,-0.4941,-0.4932,-0.4894,-0.4882,-0.4875,-0.4865,-0.4826,-0.4819,-0.4844,-0.479,-0.4784,-0.4771,-0.4779,-0.4755,-0.4753,-0.4737,-0.4738,-0.4739,-0.4782,0,0,0,0,0,0,-0.4986,-0.4978,-0.4979,-0.4941,-0.4931,-0.491,-0.4883,-0.4875,-0.4862,-0.4858,-0.4822,-0.4815,-0.4789,-0.4774,-0.4769,-0.4776,-0.4752,-0.4736,-0.4737,-0.4738,-0.4779,-0.4784,-0.4788,0,0,0,0,0,-0.4989,-0.4993,-0.4979,-0.4973,-0.4931,-0.4911,-0.4905,-0.4875,-0.4863,-0.4863,-0.4838,-0.4816,-0.4778,-0.4773,-0.4767,-0.4773,-0.4735,-0.4737,-0.4738,-0.4777,-0.4783,-0.4788,0,0,0,0,0,0,-0.5033,-0.4988,-0.4972,-0.4964,-0.4942,-0.4903,-0.4902,-0.4882,-0.4862,-0.486,-0.4823,-0.4815,-0.4807,-0.4788,-0.4783,-0.4773,-0.4754,-0.4754,-0.4786,-0.4791,-0.4795,-0.48,-0.475,0,0,0,0,0,-0.5041,-0.5029,-0.499,-0.4987,-0.4976,-0.4941,-0.4931,-0.491,-0.4885,-0.4876,-0.485,-0.4826,-0.4809,-0.4798,-0.478,-0.4776,-0.4768,-0.4777,-0.4781,-0.4785,-0.4786,-0.4783,-0.4787,-0.4744,-0.4744,-0.4744,0,0,-0.506,-0.5033,-0.5028,-0.4995,-0.4975,-0.4963,-0.4934,-0.4922,-0.4912,-0.4873,-0.486,-0.484,-0.4812,-0.4803,-0.4798,-0.4788,-0.4796,-0.4787,-0.479,-0.4789,-0.4785,-0.4789,-0.4793,-0.4745,-0.4745,-0.4744,0,0,-0.5087,-0.5065,-0.5061,-0.5042,-0.5012,-0.4988,-0.4987,-0.4952,-0.4937,-0.4923,-0.4894,-0.4882,-0.4853,-0.4834,-0.482,-0.484,-0.4819,-0.4835,-0.4857,-0.4855,-0.4858,-0.4861,-0.4869,-0.4872,-0.4836,-0.4836,-0.4836,0,-0.5114,-0.5094,-0.5061,-0.5051,-0.5038,-0.5002,-0.4998,-0.498,-0.4946,-0.4938,-0.4926,-0.4889,-0.4867,-0.4854,-0.4859,-0.4849,-0.4847,-0.484,-0.486,-0.4863,-0.4865,-0.4872,-0.4876,-0.4838,-0.4838,-0.4837,-0.4837,0,-0.5128,-0.5115,-0.5115,-0.5084,-0.507,-0.5062,-0.5029,-0.5019,-0.4998,-0.4976,-0.4963,-0.4935,-0.4911,-0.4906,-0.4886,-0.489,-0.4885,-0.4867,-0.4848,-0.4872,-0.4878,-0.4881,-0.4841,-0.484,-0.484,-0.4839,0,0,-0.5184,-0.5133,-0.5134,-0.512,-0.5084,-0.5073,-0.5063,-0.504,-0.5033,-0.501,-0.5002,-0.4978,-0.4961,-0.4946,-0.4923,-0.4921,-0.4939,-0.4904,-0.4902,-0.4913,-0.4944,-0.4959,-0.4962,-0.4925,-0.4925,-0.4925,-0.4947,0,-0.5206,-0.5189,-0.5159,-0.5151,-0.5138,-0.5104,-0.5095,-0.5073,-0.5051,-0.5037,-0.5013,-0.4998,-0.4977,-0.4967,-0.4963,-0.4938,-0.4946,-0.4936,-0.4917,-0.4917,-0.4928,-0.4965,-0.4981,-0.5003,-0.4949,-0.4949,-0.4949,0,-0.5231,-0.5211,-0.5202,-0.5167,-0.5161,-0.5154,-0.5131,-0.5117,-0.509,-0.5075,-0.5058,-0.5033,-0.5022,-0.5003,-0.4986,-0.4981,-0.4971,-0.4957,-0.4957,-0.4956,-0.4936,-0.4967,-0.5009,-0.5013,-0.4953,-0.4952,-0.4952,0,-0.5274,-0.5244,-0.5235,-0.5223,-0.5182,-0.5179,-0.5161,-0.5133,-0.5121,-0.51,-0.5092,-0.507,-0.5058,-0.5041,-0.5011,-0.5,-0.4999,-0.4977,-0.4986,-0.4987,-0.4989,-0.499,-0.5032,-0.498,-0.498,-0.498,-0.498,0,-0.5304,-0.53,-0.5254,-0.5249,-0.5243,-0.5208,-0.5204,-0.5183,-0.5159,-0.5149,-0.5116,-0.5107,-0.5067,-0.5054,-0.503,-0.5021,-0.5015,-0.5003,-0.4997,-0.5007,-0.5008,-0.5001,-0.5,-0.4981,-0.4981,-0.4981,-0.498,0,-0.5352,-0.5321,-0.5309,-0.5271,-0.5261,-0.5259,-0.5226,-0.5219,-0.5195,-0.5183,-0.5178,-0.5141,-0.5123,-0.5091,-0.5064,-0.5048,-0.5044,-0.5033,-0.5054,-0.5051,-0.5062,-0.5062,-0.5103,-0.5107,-0.5051,-0.5052,-0.5052,0,-0.5375,-0.5371,-0.5332,-0.5323,-0.5307,-0.5293,-0.528,-0.5245,-0.5234,-0.5202,-0.52,-0.5179,-0.5162,-0.5135,-0.5106,-0.5085,-0.5074,-0.5089,-0.507,-0.5081,-0.5076,-0.5077,-0.5077,-0.5094,-0.5095,-0.5095,-0.5096,0,-0.5418,-0.5402,-0.5386,-0.5364,-0.535,-0.5331,-0.531,-0.5305,-0.5264,-0.5253,-0.5235,-0.5221,-0.5193,-0.5174,-0.5149,-0.513,-0.5107,-0.5102,-0.5103,-0.5114,-0.5128,-0.5122,-0.5068,-0.5102,-0.5101,-0.5101,-0.51,-0.51,-0.5455,-0.545,-0.5422,-0.5405,-0.5385,-0.5367,-0.5359,-0.5334,-0.5318,-0.5293,-0.5273,-0.5257,-0.5229,-0.5193,-0.5176,-0.5163,-0.5152,-0.5153,-0.5154,-0.5155,-0.516,-0.5128,-0.5158,-0.5157,-0.5157,-0.5157,-0.5157,0,-0.5498,-0.5478,-0.5462,-0.5434,-0.5421,-0.5399,-0.5374,-0.5365,-0.5351,-0.5327,-0.531,-0.5289,-0.527,-0.5239,-0.5217,-0.5213,-0.5201,-0.5208,-0.5209,-0.5206,-0.517,-0.5172,-0.5218,-0.5218,-0.5218,-0.5218,-0.5218,-0.5218,-0.5519,-0.5511,-0.5492,-0.5473,-0.5452,-0.5436,-0.5425,-0.5407,-0.5388,-0.5366,-0.535,-0.533,-0.5303,-0.5279,-0.5261,-0.5252,-0.5246,-0.5257,-0.5245,-0.5214,-0.5208,-0.5203,-0.5204,-0.5256,-0.5256,-0.5282,-0.5282,-0.5282]},{"header":{"parameterUnit":"m.s-1","parameterCategory":1,"la1":30.2991,"la2":30.254,"lo1":-89.0895,"lo2":-89.0444,"dy":0.0017,"dx":0.0017,"nx":28,"ny":28,"refTime":"2023-07-30T09:00:00:Z","depth":0,"parameterNumber":3,"parameterNumberName":"V-component_of_WINDS"},"data":[0,0,0,0,0,0,0,0,0,0,0,0,0,0,0,0,0,0,0,0,0,0,0,0,0,0,0,0,0,0,0,0,0,0,0,0,0,0,0,0,0,0,0,0,0,0,0,0,0,0,0,0,0,0,0,0,0,0,0.8056,0.8056,0,0.8055,0.8055,0.8055,0.8013,0.8012,0.8011,0.801,0.8009,0.801,0.8011,0,0,0,0,0,0,0,0,0,0,0,0,0,0.8016,0.8017,0.8056,0.8056,0.8056,0.8055,0.8055,0.8055,0.8013,0.8012,0.801,0.8009,0.8008,0.801,0.8011,0,0,0,0,0,0,0,0,0,0,0,0,0,0.8026,0.8017,0.8056,0.8035,0.8033,0.8055,0.8055,0.8055,0.8013,0.8012,0.801,0.8008,0.8008,0.8009,0.8011,0.8053,0,0,0.8016,0.8016,0,0,0,0,0,0,0,0,0.8026,0.8028,0.8038,0.8036,0.8034,0.8032,0.8041,0.8055,0.8014,0.8021,0.801,0.8008,0.8018,0.8018,0.8022,0.8053,0.8053,0.8016,0.8017,0.8017,0.8018,0,0,0,0,0,0,0,0.8025,0.8027,0.8055,0.8038,0.8036,0.8024,0.8023,0.8043,0.8029,0.802,0.8017,0.8017,0.8017,0.8021,0.8022,0.8053,0.8016,0.8017,0.8018,0.8019,0.8113,0.8114,0,0,0,0,0,0,0.8027,0.8027,0.8055,0.8055,0.8026,0.8026,0.8025,0.8035,0.8028,0.8026,0.8019,0.8015,0.8019,0.802,0.8022,0.8066,0.8017,0.8019,0.802,0.8111,0.8113,0.8115,0,0,0,0,0,0,0.8027,0.803,0.8055,0.804,0.8043,0.8028,0.8039,0.8035,0.8039,0.8027,0.8024,0.8026,0.8018,0.8019,0.8044,0.8066,0.8019,0.8021,0.8109,0.8112,0.8114,0.8159,0,0,0,0,0,0,0.8026,0.803,0.8048,0.8041,0.8044,0.808,0.804,0.8037,0.8042,0.8038,0.8033,0.8031,0.8016,0.8042,0.8046,0.8067,0.8022,0.8107,0.8111,0.8113,0.8156,0.8163,0.8169,0,0,0,0,0,0.8025,0.8062,0.8049,0.8053,0.8065,0.8081,0.8083,0.8065,0.8044,0.806,0.8051,0.8031,0.8063,0.8045,0.8049,0.8071,0.8106,0.811,0.8113,0.8153,0.8161,0.8169,0,0,0,0,0,0,0.8073,0.8061,0.8046,0.8083,0.8083,0.8074,0.8094,0.8076,0.8083,0.8078,0.8056,0.8055,0.8083,0.808,0.806,0.8108,0.8081,0.8085,0.8109,0.8118,0.8124,0.8123,0.8023,0,0,0,0,0,0.8087,0.8102,0.8091,0.8124,0.8124,0.8109,0.8116,0.8102,0.8102,0.8102,0.8095,0.8095,0.8104,0.8111,0.812,0.8155,0.8151,0.8172,0.8179,0.8184,0.8187,0.8201,0.8208,0.8127,0.8127,0.8127,0,0,0.8118,0.8113,0.8124,0.8133,0.8132,0.8145,0.811,0.8128,0.8136,0.8104,0.8126,0.8121,0.8119,0.8148,0.8161,0.8146,0.8209,0.8189,0.8193,0.8193,0.8205,0.8213,0.822,0.8129,0.8129,0.8128,0,0,0.818,0.818,0.8204,0.8203,0.8201,0.819,0.8195,0.8188,0.8183,0.8205,0.8179,0.8189,0.8208,0.8206,0.8207,0.8263,0.8243,0.8267,0.8301,0.8314,0.832,0.8326,0.8342,0.8348,0.8271,0.8271,0.8271,0,0.8218,0.8239,0.822,0.8237,0.824,0.821,0.8233,0.8232,0.8233,0.8235,0.8219,0.8237,0.8235,0.826,0.8273,0.8277,0.828,0.8266,0.8321,0.8326,0.8331,0.8346,0.8352,0.8273,0.8273,0.8273,0.8272,0,0.8283,0.8298,0.8318,0.8317,0.8322,0.8343,0.8325,0.8332,0.8317,0.8307,0.8326,0.8321,0.8325,0.8331,0.8318,0.8353,0.8344,0.8325,0.8296,0.8342,0.8355,0.8361,0.8277,0.8276,0.8275,0.8275,0,0,0.8377,0.8362,0.837,0.8367,0.836,0.837,0.8388,0.8391,0.8395,0.8397,0.8408,0.8422,0.8403,0.8404,0.839,0.8402,0.8441,0.8381,0.838,0.8389,0.8474,0.8486,0.8494,0.8428,0.8429,0.843,0.8473,0,0.8433,0.8462,0.8443,0.8474,0.8484,0.8454,0.8468,0.8465,0.8455,0.8461,0.845,0.8458,0.8435,0.8435,0.8445,0.8434,0.8457,0.8431,0.8435,0.8436,0.8434,0.8501,0.8515,0.8557,0.8479,0.848,0.848,0,0.8504,0.8505,0.8536,0.8523,0.8526,0.854,0.8538,0.8546,0.854,0.8531,0.8531,0.8512,0.8525,0.8498,0.8513,0.8496,0.8496,0.8491,0.8492,0.849,0.8459,0.8498,0.857,0.8575,0.8489,0.8488,0.8488,0,0.8563,0.8573,0.8592,0.8591,0.8577,0.8586,0.858,0.8573,0.8574,0.8573,0.8573,0.8575,0.8574,0.8575,0.8555,0.8538,0.8572,0.8544,0.8563,0.8563,0.857,0.8569,0.864,0.8575,0.8575,0.8575,0.8575,0,0.8626,0.8646,0.8617,0.8629,0.8648,0.8625,0.8645,0.8636,0.8628,0.8636,0.8611,0.8618,0.8593,0.8597,0.8582,0.8595,0.8596,0.8588,0.8583,0.8588,0.8589,0.8587,0.8582,0.8577,0.8576,0.8576,0.8576,0,0.8696,0.8678,0.8695,0.8679,0.8676,0.869,0.8676,0.8684,0.8672,0.8681,0.8682,0.8662,0.8664,0.8645,0.8645,0.8635,0.8653,0.8645,0.8655,0.8651,0.867,0.8667,0.8739,0.8746,0.868,0.8681,0.8681,0,0.8736,0.8749,0.8734,0.8736,0.8731,0.8737,0.8737,0.8715,0.8716,0.8707,0.8716,0.8716,0.8715,0.872,0.8705,0.8704,0.8693,0.8718,0.8693,0.8696,0.8689,0.8687,0.8687,0.8723,0.8724,0.8725,0.8725,0,0.8807,0.8796,0.8798,0.8796,0.8797,0.8794,0.879,0.8793,0.8768,0.877,0.8772,0.8771,0.8769,0.8769,0.8763,0.8756,0.8735,0.8734,0.8737,0.8742,0.8745,0.8739,0.8666,0.8732,0.8731,0.8731,0.873,0.873,0.886,0.8869,0.8858,0.886,0.8853,0.8849,0.8854,0.8841,0.8842,0.8838,0.8825,0.8828,0.8817,0.8808,0.8802,0.8802,0.879,0.8796,0.8797,0.8798,0.88,0.8747,0.8802,0.8802,0.8802,0.8801,0.8801,0,0.8927,0.8917,0.8919,0.8912,0.8913,0.8893,0.8886,0.8887,0.889,0.8882,0.888,0.888,0.8878,0.8862,0.8858,0.8861,0.8851,0.886,0.8859,0.8856,0.8813,0.8809,0.8868,0.8868,0.8868,0.8868,0.8868,0.8868,0.8961,0.8973,0.8961,0.8969,0.8959,0.8961,0.8958,0.8953,0.8945,0.8946,0.8944,0.8933,0.892,0.8914,0.8911,0.8906,0.8904,0.8916,0.8907,0.8867,0.886,0.8854,0.8849,0.8916,0.8916,0.8949,0.895,0.895]}]]